Location: Altenhof
(50.2418°N, 10.8789°E)
Time: 01:24:08
(UTC+00:00)

Cosmos 1328 Rocket - Pass Details

Date: 18 February 2020
Orbit: 600 x 628 km, 82.5° (Epoch: 03 April)

Event Time Altitude Azimuth Distance (km) Brightness Sun altitude
Rises 05:42:00 0° 186° (S) 2,902 7.1 -7.2°
Reaches altitude 10° 05:44:13 10° 185° (S) 2,001 6.2 -6.9°
Maximum altitude 05:48:39 83° 99° (E) 640 3.7 -6.2°
Drops below altitude 10° 05:53:08 10° 12° (NNE) 2,016 6.2 -5.5°
Sets 05:55:23 0° 11° (NNE) 2,926 7.0 -5.1°
